Location: Newark
(29.9790°N, 31.1340°E)
Time: 13:10:55
(UTC+00:00)

Vanguard 3 - Pass Details

Date: 22 January 2020
Orbit: 508 x 3263 km, 33.3° (Epoch: 24 February)

Event Time Altitude Azimuth Distance (km) Brightness Sun altitude
Rises 19:46:51 0° 281° (W) 6,959 12.4 -56.7°
Reaches altitude 10° 19:52:00 10° 282° (WNW) 5,672 11.8 -57.8°
Enters shadow 20:01:23 38° 287° (WNW) 3,213 10.1 -59.8°
